COSMOS 887

Satellite information

Favourite Embed

Satellite Type and Status

PAYLOADIN ORBIT

Key statistics

Satellite COSMOS 887 at a glance.

Uptime

17783

Days in orbit

Revolutions

≈ 13.8

Per day

Orbit

LEO

Low Earth Orbit

Inclination

82.9

Latest

Satellite identification and parameters

Extended collection of information and parameters for COSMOS 887.

Object identification

Identified? True

Debris? False

Object name: COSMOS 887

International designator: 1976-128A

Object number (NORAD): 9637

Object ID (CCSDS): 9637

Country: COMMONWEALTH OF INDEPENDENT STATES (CIS)

Current information (Y/N): Y

RCS size: LARGE

Orbital parameters

Period: 104.615 minutes

Inclination: 82.9436 deg

SMA: 7354.573 km

Apoapsis: 1008.97 km

Periapsis: 943.906 km

RAAN: 13.2963 deg

Eccentricy: 0.00442332

Argument of periapsis: 327.1266 deg

Mean anomaly: 207.2049 deg

Mean motion: 13.76469417 rev/day

Mean motion (dot): 0.00000083 rev/day2

B* drag term: 0.000069389119 1/REarth

Two-line elements (TLE)

Creation date: Sept. 4, 2025, 10:13 a.m.

Reference frame: TEME

Reference center: EARTH

Epoch: Sept. 4, 2025, 3:09 a.m. UTC

TLE line 0: 0 COSMOS 887

TLE line 1: 1 09637U 76128A 25247.13193765 .00000083 00000-0 69389-4 0 9994

TLE line 2: 2 09637 82.9436 13.2963 0044233 327.1266 207.2049 13.76469417444336

Live tracking on map

Real-time ground track for satellite COSMOS 887.

In-orbit conjunctions

A list of the most updated potential collisions computed for object COSMOS 887.

Target Orbit TCA Probability of collision Miss distance Type
SCOUT A DEB SSO 2025-09-07 13:37:46 0.0002391932 130.0 (m) DEBRIS
SL-12 DEB LEO 2024-12-24 13:28:55 0.0009669178 175.0 (m) DEBRIS
FENGYUN 1C DEB SSO 2024-12-24 11:47:50 0.001512397 148.0 (m) DEBRIS
CZ-6A DEB SSO 2024-06-20 07:26:32 0.0004314156 756.0 (m) DEBRIS
COSMOS 970 DEB LEO 2024-06-19 17:49:03 0.0001895947 624.0 (m) DEBRIS

Associated space launch

Molniya communication satellites operating from a highly elliptical orbit

COSMOS 887 was lifted into orbit during the mission ‘Molniya-M | Molniya-3 17L’, on board a Molniya-M space rocket.

The launch took place on Dec. 28, 1976, 6:38 a.m. from 43/4 (43R).

For more information about the launch, click the button.

Launch to space Molniya-M | Molniya-3 17L
Molniya-M | Molniya-3 17L

Agency: N/A

Status: Launch Successful

Launch date: Dec. 28, 1976, 6:38 a.m. UTC

Rocket: Molniya-M

Launch pad: 43/4 (43R)

Location: Plesetsk Cosmodrome, Russian Federation

...

Latest news about this satellite

There are no fresh news available about this satellite. Check back as we update our databases every day.


Newsletter sign-up

Weekly statistics, charts and insights to help you stay on top of the space industry.